Time,TemperatureF,DewpointF,PressureIn,WindDirection,WindDirectionDegrees,WindSpeedMPH,WindSpeedGustMPH,Humidity,HourlyPrecipIn,Conditions,Clouds,dailyrainin,SoftwareType,DateUTC
2013-01-06 00:14:00,43.5,39.0,29.83,NE,39,0.0,2.0,85,0.00,,,0.00,weatherlink.com 1.10,2013-01-06 08:14:00,
2013-01-06 00:29:00,43.7,40.0,29.82,ENE,61,0.0,1.0,86,0.00,,,0.00,weatherlink.com 1.10,2013-01-06 08:29:00,
2013-01-06 00:44:00,43.5,40.0,29.82,ESE,107,0.0,2.0,86,0.00,,,0.00,weatherlink.com 1.10,2013-01-06 08:44:00,
2013-01-06 00:59:00,43.3,40.0,29.82,North,11,0.0,2.0,87,0.00,,,0.00,weatherlink.com 1.10,2013-01-06 08:59:00,
2013-01-06 01:14:00,43.3,40.0,29.82,NE,51,0.0,1.0,88,0.00,,,0.00,weatherlink.com 1.10,2013-01-06 09:14:00,
2013-01-06 01:29:00,43.4,40.0,29.83,NE,51,0.0,1.0,89,0.00,,,0.00,weatherlink.com 1.10,2013-01-06 09:29:00,
2013-01-06 01:44:00,43.4,41.0,29.84,NNW,342,0.0,2.0,90,0.00,,,0.00,weatherlink.com 1.10,2013-01-06 09:44:00,
2013-01-06 01:59:00,43.5,41.0,29.83,North,355,0.0,1.0,91,0.00,,,0.00,weatherlink.com 1.10,2013-01-06 09:59:00,
2013-01-06 02:14:00,43.5,41.0,29.83,North,9,0.0,0.0,92,0.00,,,0.00,weatherlink.com 1.10,2013-01-06 10:14:00,
2013-01-06 02:29:00,43.5,41.0,29.83,East,84,0.0,1.0,92,0.00,,,0.00,weatherlink.com 1.10,2013-01-06 10:29:00,
2013-01-06 02:44:00,43.2,41.0,29.82,NE,49,0.0,2.0,92,0.00,,,0.00,weatherlink.com 1.10,2013-01-06 10:44:00,
2013-01-06 02:59:00,43.0,41.0,29.83,ESE,116,2.0,2.0,92,0.00,,,0.00,weatherlink.com 1.10,2013-01-06 10:59:00,
2013-01-06 03:14:00,42.4,40.0,29.82,ESE,115,0.0,1.0,92,0.00,,,0.00,weatherlink.com 1.10,2013-01-06 11:14:00,
2013-01-06 03:29:00,41.5,39.0,29.82,ESE,115,0.0,0.0,91,0.00,,,0.00,weatherlink.com 1.10,2013-01-06 11:29:00,
2013-01-06 03:44:00,39.9,38.0,29.82,North,355,0.0,2.0,91,0.00,,,0.00,weatherlink.com 1.10,2013-01-06 11:44:00,
2013-01-06 03:59:00,38.8,37.0,29.82,NNW,329,0.0,2.0,92,0.00,,,0.00,weatherlink.com 1.10,2013-01-06 11:59:00,
2013-01-06 04:14:00,38.1,36.0,29.81,NNW,329,0.0,1.0,92,0.00,,,0.00,weatherlink.com 1.10,2013-01-06 12:14:00,
2013-01-06 04:29:00,37.2,35.0,29.81,NNW,329,0.0,1.0,92,0.00,,,0.00,weatherlink.com 1.10,2013-01-06 12:29:00,
2013-01-06 04:44:00,36.1,34.0,29.81,NNW,329,0.0,1.0,92,0.00,,,0.00,weatherlink.com 1.10,2013-01-06 12:44:00,
2013-01-06 04:59:00,35.6,34.0,29.81,NNW,329,1.0,2.0,93,0.00,,,0.00,weatherlink.com 1.10,2013-01-06 12:59:00,
2013-01-06 05:14:00,36.5,35.0,29.81,SSW,196,0.0,2.0,95,0.00,,,0.00,weatherlink.com 1.10,2013-01-06 13:14:00,
2013-01-06 05:29:00,37.7,37.0,29.81,ENE,64,0.0,2.0,96,0.00,,,0.00,weatherlink.com 1.10,2013-01-06 13:29:00,
2013-01-06 05:44:00,37.5,36.0,29.81,NNW,330,3.0,4.0,95,0.00,,,0.00,weatherlink.com 1.10,2013-01-06 13:44:00,
2013-01-06 05:59:00,37.1,36.0,29.81,NNW,328,2.0,3.0,95,0.00,,,0.00,weatherlink.com 1.10,2013-01-06 13:59:00,
2013-01-06 06:14:00,36.7,35.0,29.81,NW,319,1.0,2.0,95,0.00,,,0.00,weatherlink.com 1.10,2013-01-06 14:14:00,
2013-01-06 06:29:00,36.7,35.0,29.81,East,84,0.0,1.0,95,0.00,,,0.00,weatherlink.com 1.10,2013-01-06 14:29:00,
2013-01-06 06:44:00,36.4,35.0,29.82,NNW,329,1.0,3.0,95,0.00,,,0.00,weatherlink.com 1.10,2013-01-06 14:44:00,
2013-01-06 06:59:00,36.5,36.0,29.82,North,355,1.0,2.0,96,0.00,,,0.00,weatherlink.com 1.10,2013-01-06 14:59:00,
2013-01-06 07:14:00,-999.0,-99.9,29.82,North,-999,-999.0,-999.0,-999,0.00,,,0.00,weatherlink.com 1.10,2013-01-06 15:14:00,
2013-01-06 07:29:00,-999.0,-99.9,29.82,North,-999,-999.0,-999.0,-999,0.00,,,0.00,weatherlink.com 1.10,2013-01-06 15:29:00,
2013-01-06 07:44:00,-999.0,-99.9,29.82,North,-999,-999.0,-999.0,-999,0.00,,,0.00,weatherlink.com 1.10,2013-01-06 15:44:00,
2013-01-06 07:59:00,-999.0,-99.9,29.83,North,-999,-999.0,-999.0,-999,0.00,,,0.00,weatherlink.com 1.10,2013-01-06 15:59:00,
2013-01-06 08:15:00,-999.0,-99.9,29.83,North,-999,-999.0,-999.0,-999,0.00,,,0.00,weatherlink.com 1.10,2013-01-06 16:15:00,
2013-01-06 08:30:00,-999.0,-99.9,29.82,North,-999,-999.0,-999.0,-999,0.00,,,0.00,weatherlink.com 1.10,2013-01-06 16:30:00,
2013-01-06 08:45:00,-999.0,-99.9,29.83,North,-999,-999.0,-999.0,-999,0.00,,,0.00,weatherlink.com 1.10,2013-01-06 16:45:00,
2013-01-06 09:00:00,-999.0,-99.9,29.82,North,-999,-999.0,-999.0,-999,0.00,,,0.00,weatherlink.com 1.10,2013-01-06 17:00:00,
2013-01-06 09:15:00,45.8,45.0,29.83,East,90,1.0,7.0,97,0.00,,,0.00,weatherlink.com 1.10,2013-01-06 17:15:00,
2013-01-06 09:30:00,47.4,45.0,29.82,East,82,1.0,4.0,92,0.00,,,0.00,weatherlink.com 1.10,2013-01-06 17:30:00,
2013-01-06 09:45:00,49.2,46.0,29.82,SE,136,2.0,2.0,87,0.00,,,0.00,weatherlink.com 1.10,2013-01-06 17:45:00,
2013-01-06 10:00:00,50.9,45.0,29.82,South,184,1.0,4.0,81,0.00,,,0.00,weatherlink.com 1.10,2013-01-06 18:00:00,
2013-01-06 10:15:00,52.3,46.0,29.82,SSE,162,4.0,6.0,78,0.00,,,0.00,weatherlink.com 1.10,2013-01-06 18:15:00,
2013-01-06 10:30:00,52.7,45.0,29.80,South,190,1.0,8.0,75,0.00,,,0.00,weatherlink.com 1.10,2013-01-06 18:30:00,
2013-01-06 10:45:00,53.9,46.0,29.79,SW,216,5.0,11.0,75,0.00,,,0.00,weatherlink.com 1.10,2013-01-06 18:45:00,
2013-01-06 11:00:00,54.8,46.0,29.79,SSW,193,5.0,10.0,71,0.00,,,0.00,weatherlink.com 1.10,2013-01-06 19:00:00,
2013-01-06 11:15:00,55.3,46.0,29.77,SSE,164,3.0,9.0,71,0.00,,,0.00,weatherlink.com 1.10,2013-01-06 19:15:00,
2013-01-06 11:30:00,55.3,45.0,29.76,South,186,6.0,11.0,69,0.00,,,0.00,weatherlink.com 1.10,2013-01-06 19:30:00,
2013-01-06 12:00:00,56.2,44.0,29.74,South,185,17.0,17.0,64,0.00,,,0.00,weatherlink.com 1.10,2013-01-06 20:00:00,
2013-01-06 12:16:00,56.3,43.0,29.74,SSE,150,10.0,19.0,62,0.00,,,0.00,weatherlink.com 1.10,2013-01-06 20:16:00,
2013-01-06 12:31:00,54.6,46.0,29.73,SSW,197,10.0,20.0,73,0.01,,,0.01,weatherlink.com 1.10,2013-01-06 20:31:00,
2013-01-06 12:46:00,55.0,44.0,29.73,SW,229,3.0,17.0,66,0.01,,,0.01,weatherlink.com 1.10,2013-01-06 20:46:00,
2013-01-06 13:01:00,53.9,43.0,29.72,SW,229,8.0,19.0,67,0.01,,,0.01,weatherlink.com 1.10,2013-01-06 21:01:00,
2013-01-06 13:16:00,54.1,44.0,29.71,South,171,10.0,12.0,68,0.01,,,0.01,weatherlink.com 1.10,2013-01-06 21:16:00,
2013-01-06 13:31:00,54.7,44.0,29.71,SSW,209,6.0,15.0,68,0.00,,,0.01,weatherlink.com 1.10,2013-01-06 21:31:00,
2013-01-06 13:46:00,53.6,44.0,29.70,SW,223,7.0,11.0,69,0.00,,,0.01,weatherlink.com 1.10,2013-01-06 21:46:00,
2013-01-06 14:01:00,54.4,44.0,29.70,SSW,206,4.0,13.0,68,0.00,,,0.01,weatherlink.com 1.10,2013-01-06 22:01:00,
2013-01-06 14:16:00,53.4,45.0,29.69,South,178,5.0,15.0,73,0.00,,,0.01,weatherlink.com 1.10,2013-01-06 22:16:00,
2013-01-06 14:31:00,55.0,46.0,29.69,SSW,196,3.0,11.0,71,0.00,,,0.01,weatherlink.com 1.10,2013-01-06 22:31:00,
2013-01-06 14:46:00,54.8,45.0,29.69,SSE,166,4.0,12.0,70,0.00,,,0.01,weatherlink.com 1.10,2013-01-06 22:46:00,
2013-01-06 15:01:00,53.6,45.0,29.69,SW,220,4.0,9.0,72,0.00,,,0.01,weatherlink.com 1.10,2013-01-06 23:01:00,
2013-01-06 15:16:00,53.9,45.0,29.68,SSE,163,3.0,8.0,71,0.00,,,0.01,weatherlink.com 1.10,2013-01-06 23:16:00,
2013-01-06 15:31:00,54.6,45.0,29.68,SW,227,2.0,7.0,70,0.00,,,0.01,weatherlink.com 1.10,2013-01-06 23:31:00,
2013-01-06 15:46:00,53.4,45.0,29.68,SSW,209,1.0,6.0,73,0.00,,,0.01,weatherlink.com 1.10,2013-01-06 23:46:00,
2013-01-06 16:01:00,52.8,44.0,29.68,SW,225,1.0,4.0,72,0.00,,,0.01,weatherlink.com 1.10,2013-01-07 00:01:00,
2013-01-06 16:16:00,52.6,45.0,29.68,SW,226,4.0,5.0,74,0.00,,,0.01,weatherlink.com 1.10,2013-01-07 00:16:00,
2013-01-06 16:31:00,51.9,45.0,29.68,SW,236,0.0,4.0,76,0.00,,,0.01,weatherlink.com 1.10,2013-01-07 00:31:00,
2013-01-06 16:46:00,51.7,45.0,29.68,SW,224,0.0,3.0,77,0.00,,,0.01,weatherlink.com 1.10,2013-01-07 00:46:00,
2013-01-06 17:01:00,51.4,45.0,29.68,SW,223,0.0,1.0,78,0.00,,,0.01,weatherlink.com 1.10,2013-01-07 01:01:00,
2013-01-06 17:16:00,50.2,45.0,29.67,SW,223,0.0,1.0,81,0.00,,,0.01,weatherlink.com 1.10,2013-01-07 01:16:00,
2013-01-06 17:31:00,49.0,44.0,29.67,SW,228,0.0,1.0,83,0.00,,,0.01,weatherlink.com 1.10,2013-01-07 01:31:00,
2013-01-06 17:46:00,48.0,44.0,29.67,North,355,0.0,2.0,86,0.00,,,0.01,weatherlink.com 1.10,2013-01-07 01:46:00,
2013-01-06 18:01:00,47.5,44.0,29.67,NNE,24,1.0,1.0,87,0.00,,,0.01,weatherlink.com 1.10,2013-01-07 02:01:00,
2013-01-06 18:16:00,46.7,43.0,29.67,NNE,17,0.0,2.0,88,0.00,,,0.01,weatherlink.com 1.10,2013-01-07 02:16:00,
2013-01-06 18:31:00,46.1,43.0,29.68,North,355,0.0,2.0,88,0.00,,,0.01,weatherlink.com 1.10,2013-01-07 02:31:00,
2013-01-06 18:46:00,45.6,43.0,29.68,North,355,0.0,0.0,90,0.00,,,0.01,weatherlink.com 1.10,2013-01-07 02:46:00,
2013-01-06 19:01:00,45.5,43.0,29.68,North,5,0.0,2.0,91,0.00,,,0.01,weatherlink.com 1.10,2013-01-07 03:01:00,
2013-01-06 19:16:00,45.5,43.0,29.68,North,5,0.0,1.0,91,0.00,,,0.01,weatherlink.com 1.10,2013-01-07 03:16:00,
2013-01-06 19:31:00,45.3,43.0,29.67,North,5,0.0,2.0,91,0.00,,,0.01,weatherlink.com 1.10,2013-01-07 03:31:00,
2013-01-06 20:01:00,44.9,43.0,29.67,SE,145,0.0,1.0,92,0.00,,,0.01,weatherlink.com 1.10,2013-01-07 04:01:00,
2013-01-06 20:16:00,44.4,42.0,29.67,SSE,147,0.0,1.0,92,0.00,,,0.01,weatherlink.com 1.10,2013-01-07 04:16:00,
2013-01-06 20:31:00,43.9,42.0,29.68,ESE,115,0.0,1.0,92,0.00,,,0.01,weatherlink.com 1.10,2013-01-07 04:31:00,
2013-01-06 20:46:00,43.7,42.0,29.68,NE,42,0.0,2.0,93,0.00,,,0.01,weatherlink.com 1.10,2013-01-07 04:46:00,
2013-01-06 21:01:00,43.8,42.0,29.68,NE,42,1.0,1.0,94,0.00,,,0.01,weatherlink.com 1.10,2013-01-07 05:01:00,
2013-01-06 21:16:00,43.8,42.0,29.68,NE,42,0.0,1.0,94,0.00,,,0.01,weatherlink.com 1.10,2013-01-07 05:16:00,
2013-01-06 21:31:00,44.0,42.0,29.68,NW,307,0.0,3.0,94,0.00,,,0.01,weatherlink.com 1.10,2013-01-07 05:31:00,
2013-01-06 21:46:00,43.9,42.0,29.67,NNE,32,1.0,1.0,94,0.00,,,0.01,weatherlink.com 1.10,2013-01-07 05:46:00,
2013-01-06 22:01:00,43.1,41.0,29.68,NNE,32,0.0,1.0,93,0.00,,,0.01,weatherlink.com 1.10,2013-01-07 06:01:00,
2013-01-06 22:16:00,42.4,41.0,29.68,NNE,32,0.0,1.0,93,0.00,,,0.01,weatherlink.com 1.10,2013-01-07 06:16:00,
2013-01-06 22:31:00,41.9,40.0,29.68,NNE,32,0.0,0.0,93,0.00,,,0.01,weatherlink.com 1.10,2013-01-07 06:31:00,
2013-01-06 22:46:00,-999.0,-99.9,29.68,North,-999,-999.0,-999.0,-999,0.00,,,0.01,weatherlink.com 1.10,2013-01-07 06:46:00,
2013-01-06 23:01:00,-999.0,-99.9,29.69,North,-999,-999.0,-999.0,-999,0.00,,,0.01,weatherlink.com 1.10,2013-01-07 07:01:00,
2013-01-06 23:16:00,-999.0,-99.9,29.70,North,-999,-999.0,-999.0,-999,0.00,,,0.01,weatherlink.com 1.10,2013-01-07 07:16:00,
2013-01-06 23:31:00,-999.0,-99.9,29.69,North,-999,-999.0,-999.0,-999,0.00,,,0.01,weatherlink.com 1.10,2013-01-07 07:31:00,
2013-01-06 23:46:00,-999.0,-99.9,29.69,North,-999,-999.0,-999.0,-999,0.00,,,0.01,weatherlink.com 1.10,2013-01-07 07:46:00,